| time (UTC) | temp C | wind direction | speed KPH | gust KPH | rain 1hr cm | rain 24hr cm | rain mn cm | humidity % | barometer mb |
| 20260505092535 | 0 | 45 | 4.8 | 12.9 | 0.03 | 0.64 | 0.03 | 94 | 1012.9 |
| 20260505091535 | 0 | 68 | 4.8 | 9.7 | 0.03 | 0.64 | 0.03 | 94 | 1013.0 |
| 20260505090535 | 1 | 68 | 4.8 | 14.5 | 0.00 | 0.61 | 0.00 | 94 | 1013.0 |
| 20260505085515 | 1 | 45 | 4.8 | 8.0 | 0.00 | 0.61 | 0.00 | 94 | 1012.9 |
| 20260505084515 | 1 | 45 | 3.2 | 6.4 | 0.00 | 0.61 | 0.00 | 94 | 1013.0 |
| 20260505083515 | 1 | 0.0 | 3.2 | 0.00 | 0.61 | 0.00 | 94 | 1013.0 | |
| 20260505082518 | 1 | 225 | 1.6 | 3.2 | 0.00 | 0.61 | 0.00 | 94 | 1012.8 |
| 20260505081518 | 1 | 225 | 3.2 | 6.4 | 0.00 | 0.61 | 0.00 | 94 | 1012.9 |
| 20260505080518 | 1 | 225 | 3.2 | 4.8 | 0.00 | 0.61 | 0.00 | 93 | 1012.9 |
| 20260505075517 | 1 | 225 | 1.6 | 3.2 | 0.00 | 0.61 | 0.00 | 93 | 1012.7 |
| 20260505074517 | 1 | 225 | 3.2 | 4.8 | 0.00 | 0.61 | 0.00 | 93 | 1012.9 |
| 20260505073537 | 1 | 225 | 1.6 | 3.2 | 0.00 | 0.61 | 0.00 | 93 | 1013.0 |
| 20260505072517 | 1 | 293 | 1.6 | 1.6 | 0.00 | 0.61 | 0.00 | 92 | 1013.3 |
| 20260505071517 | 1 | 293 | 1.6 | 3.2 | 0.00 | 0.61 | 0.00 | 93 | 1013.3 |
| 20260505070516 | 1 | 293 | 1.6 | 3.2 | 0.00 | 0.61 | 0.00 | 93 | 1013.4 |
| 20260505065520 | 1 | 293 | 3.2 | 4.8 | 0.00 | 0.61 | 0.00 | 92 | 1013.4 |
| 20260505064520 | 1 | 0.0 | 3.2 | 0.00 | 0.61 | 0.00 | 92 | 1013.5 | |
| 20260505063520 | 1 | 0.0 | 3.2 | 0.00 | 0.61 | 0.00 | 92 | 1013.6 | |
| 20260505062520 | 1 | 45 | 1.6 | 1.6 | 0.00 | 0.61 | 0.00 | 91 | 1013.3 |
| 20260505061520 | 1 | 45 | 3.2 | 4.8 | 0.00 | 0.61 | 0.00 | 92 | 1013.1 |
| 20260505060520 | 1 | 270 | 1.6 | 3.2 | 0.00 | 0.61 | 0.00 | 91 | 1013.2 |
| 20260505055520 | 2 | 0.0 | 1.6 | 0.00 | 0.61 | 0.61 | 92 | 1013.1 | |
| 20260505054517 | 1 | 270 | 3.2 | 3.2 | 0.00 | 0.61 | 0.61 | 92 | 1013.1 |
| 20260505053516 | 1 | 270 | 4.8 | 9.7 | 0.00 | 0.61 | 0.61 | 93 | 1012.8 |
| 20260505052540 | 1 | 270 | 4.8 | 6.4 | 0.00 | 0.61 | 0.61 | 92 | 1012.6 |
| 20260505051520 | 1 | 248 | 1.6 | 3.2 | 0.00 | 0.61 | 0.61 | 92 | 1012.6 |
| 20260505050516 | 2 | 180 | 1.6 | 6.4 | 0.00 | 0.61 | 0.61 | 93 | 1012.4 |
| 20260505041516 | 1 | 270 | 3.2 | 6.4 | 0.03 | 0.61 | 0.61 | 93 | 1012.7 |
| 20260505040516 | 1 | 225 | 4.8 | 8.0 | 0.05 | 0.61 | 0.61 | 93 | 1012.9 |
| 20260505035517 | 1 | 225 | 6.4 | 9.7 | 0.10 | 0.61 | 0.61 | 93 | 1012.9 |
| 20260505034536 | 1 | 248 | 3.2 | 8.0 | 0.13 | 0.61 | 0.61 | 93 | 1012.8 |
| 20260505033516 | 1 | 203 | 4.8 | 6.4 | 0.25 | 0.61 | 0.61 | 93 | 1012.9 |
| 20260505032520 | 1 | 225 | 4.8 | 9.7 | 0.28 | 0.58 | 0.58 | 92 | 1012.7 |
| 20260505031520 | 1 | 225 | 4.8 | 9.7 | 0.33 | 0.58 | 0.58 | 92 | 1012.7 |
| 20260505030520 | 1 | 225 | 4.8 | 8.0 | 0.41 | 0.56 | 0.56 | 91 | 1012.5 |
| 20260505025520 | 1 | 225 | 3.2 | 4.8 | 0.41 | 0.51 | 0.51 | 90 | 1012.5 |
| 20260505024520 | 1 | 248 | 3.2 | 6.4 | 0.41 | 0.48 | 0.48 | 90 | 1012.8 |
| 20260505023516 | 2 | 225 | 1.6 | 4.8 | 0.30 | 0.36 | 0.36 | 89 | 1012.7 |
| 20260505022517 | 2 | 270 | 6.4 | 16.1 | 0.25 | 0.30 | 0.30 | 89 | 1012.8 |
| 20260505021520 | 2 | 293 | 8.0 | 12.9 | 0.20 | 0.25 | 0.25 | 89 | 1012.9 |
| 20260505020520 | 3 | 315 | 9.7 | 16.1 | 0.13 | 0.15 | 0.15 | 88 | 1012.7 |
| 20260505015520 | 3 | 315 | 4.8 | 9.7 | 0.08 | 0.10 | 0.10 | 87 | 1012.7 |
| 20260505014516 | 4 | 23 | 8.0 | 17.7 | 0.05 | 0.08 | 0.08 | 84 | 1012.5 |
| 20260505013516 | 5 | 45 | 8.0 | 16.1 | 0.03 | 0.05 | 0.05 | 80 | 1012.6 |
| 20260505012539 | 5 | 45 | 4.8 | 12.9 | 0.03 | 0.05 | 0.05 | 79 | 1012.3 |
| 20260505011520 | 5 | 45 | 6.4 | 9.7 | 0.03 | 0.05 | 0.05 | 76 | 1012.3 |
| 20260505010519 | 6 | 23 | 6.4 | 14.5 | 0.00 | 0.03 | 0.03 | 75 | 1012.3 |
| 20260505005556 | 6 | 45 | 4.8 | 8.0 | 0.00 | 0.03 | 0.03 | 73 | 1012.1 |
| 20260505004516 | 6 | 45 | 8.0 | 16.1 | 0.00 | 0.03 | 0.03 | 71 | 1012.1 |
| 20260505003520 | 6 | 45 | 6.4 | 16.1 | 0.00 | 0.03 | 0.03 | 72 | 1012.2 |
| 20260505002600 | 6 | 68 | 4.8 | 9.7 | 0.00 | 0.03 | 0.03 | 72 | 1011.8 |
| 20260505001539 | 7 | 68 | 6.4 | 16.1 | 0.00 | 0.03 | 0.03 | 72 | 1011.7 |
| 20260505000519 | 7 | 90 | 3.2 | 11.3 | 0.00 | 0.03 | 0.03 | 72 | 1011.7 |
| 20260504235516 | 7 | 45 | 3.2 | 6.4 | 0.00 | 0.03 | 0.03 | 74 | 1011.9 |
| 20260504234516 | 7 | 68 | 1.6 | 8.0 | 0.00 | 0.03 | 0.03 | 75 | 1012.0 |
| 20260504233516 | 6 | 45 | 1.6 | 8.0 | 0.00 | 0.03 | 0.03 | 78 | 1011.8 |
| 20260504232516 | 6 | 158 | 1.6 | 4.8 | 0.00 | 0.03 | 0.03 | 78 | 1011.7 |
| 20260504231516 | 6 | 135 | 1.6 | 4.8 | 0.00 | 0.03 | 0.03 | 75 | 1011.6 |
| 20260504230556 | 6 | 135 | 3.2 | 9.7 | 0.03 | 0.03 | 0.03 | 77 | 1011.6 |
| 20260504225516 | 6 | 90 | 4.8 | 11.3 | 0.03 | 0.03 | 0.03 | 80 | 1011.2 |
| 20260504224516 | 6 | 90 | 3.2 | 4.8 | 0.03 | 0.03 | 0.03 | 79 | 1011.4 |
| 20260504223516 | 6 | 135 | 3.2 | 4.8 | 0.03 | 0.03 | 0.03 | 78 | 1011.8 |
| 20260504222516 | 6 | 225 | 1.6 | 6.4 | 0.03 | 0.03 | 0.03 | 81 | 1011.8 |
| 20260504221516 | 5 | 203 | 4.8 | 14.5 | 0.03 | 0.03 | 0.03 | 77 | 1012.1 |
| 20260504220516 | 7 | 248 | 11.3 | 24.1 | 0.00 | 0.00 | 0.00 | 69 | 1012.4 |
| 20260504215516 | 8 | 293 | 9.7 | 17.7 | 0.00 | 0.00 | 0.00 | 53 | 1012.4 |
| 20260504214516 | 8 | 23 | 14.5 | 27.4 | 0.00 | 0.00 | 0.00 | 51 | 1011.0 |
| 20260504213519 | 8 | 45 | 12.9 | 30.6 | 0.00 | 0.00 | 0.00 | 47 | 1011.2 |
| 20260504212519 | 9 | 45 | 9.7 | 25.7 | 0.00 | 0.00 | 0.00 | 46 | 1011.4 |
| 20260504211519 | 11 | 23 | 16.1 | 32.2 | 0.00 | 0.00 | 0.00 | 41 | 1011.6 |
| 20260504210519 | 13 | 225 | 6.4 | 32.2 | 0.00 | 0.00 | 0.00 | 31 | 1012.1 |
| 20260504205519 | 13 | 293 | 4.8 | 14.5 | 0.00 | 0.00 | 0.00 | 30 | 1012.0 |
| 20260504204519 | 13 | 270 | 12.9 | 22.5 | 0.00 | 0.00 | 0.00 | 30 | 1012.0 |
| 20260504203519 | 13 | 270 | 6.4 | 19.3 | 0.00 | 0.00 | 0.00 | 36 | 1012.1 |
| 20260504202519 | 12 | 270 | 11.3 | 20.9 | 0.00 | 0.00 | 0.00 | 38 | 1012.1 |
| 20260504201536 | 11 | 270 | 14.5 | 29.0 | 0.00 | 0.00 | 0.00 | 42 | 1012.4 |
| 20260504200516 | 11 | 248 | 11.3 | 19.3 | 0.00 | 0.00 | 0.00 | 43 | 1012.2 |
| 20260504195516 | 10 | 225 | 14.5 | 22.5 | 0.00 | 0.00 | 0.00 | 44 | 1012.1 |
| 20260504194516 | 9 | 225 | 12.9 | 25.7 | 0.00 | 0.00 | 0.00 | 46 | 1012.2 |
| 20260504193516 | 10 | 225 | 14.5 | 27.4 | 0.00 | 0.00 | 0.00 | 45 | 1012.6 |
| 20260504192516 | 10 | 225 | 14.5 | 33.8 | 0.00 | 0.00 | 0.00 | 43 | 1012.7 |
| 20260504191516 | 10 | 270 | 11.3 | 22.5 | 0.00 | 0.00 | 0.00 | 38 | 1012.8 |
| 20260504190516 | 10 | 270 | 19.3 | 35.4 | 0.00 | 0.00 | 0.00 | 35 | 1012.7 |
| 20260504185536 | 11 | 270 | 22.5 | 45.1 | 0.00 | 0.00 | 0.00 | 36 | 1012.6 |
| 20260504184536 | 11 | 270 | 16.1 | 27.4 | 0.00 | 0.00 | 0.00 | 36 | 1012.9 |
| 20260504183536 | 11 | 270 | 9.7 | 19.3 | 0.00 | 0.00 | 0.00 | 36 | 1013.0 |
| 20260504182516 | 11 | 248 | 8.0 | 14.5 | 0.00 | 0.00 | 0.00 | 37 | 1013.2 |
| 20260504181516 | 11 | 270 | 6.4 | 14.5 | 0.00 | 0.00 | 0.00 | 37 | 1013.2 |
| 20260504180516 | 11 | 293 | 11.3 | 20.9 | 0.00 | 0.00 | 0.00 | 37 | 1013.1 |
| 20260504175516 | 11 | 270 | 11.3 | 19.3 | 0.00 | 0.00 | 0.00 | 37 | 1013.3 |
| 20260504174539 | 11 | 270 | 12.9 | 24.1 | 0.00 | 0.00 | 0.00 | 38 | 1013.4 |
| 20260504173519 | 11 | 225 | 11.3 | 25.7 | 0.00 | 0.00 | 0.00 | 38 | 1013.6 |
| 20260504172539 | 10 | 270 | 11.3 | 22.5 | 0.00 | 0.00 | 0.00 | 38 | 1013.8 |
| 20260504171515 | 10 | 270 | 8.0 | 24.1 | 0.00 | 0.00 | 0.00 | 40 | 1013.9 |
| 20260504170516 | 10 | 270 | 14.5 | 29.0 | 0.00 | 0.00 | 0.00 | 40 | 1013.8 |
| 20260504150515 | 8 | 248 | 20.9 | 37.0 | 0.00 | 0.00 | 0.00 | 44 | 1013.5 |
| 20260504140519 | 8 | 225 | 12.9 | 41.8 | 0.00 | 0.00 | 0.00 | 41 | 1014.1 |
| 20260504130535 | 8 | 225 | 14.5 | 24.1 | 0.00 | 0.00 | 0.00 | 35 | 1014.3 |
| 20260504110515 | 4 | 225 | 6.4 | 9.7 | 0.00 | 0.00 | 0.00 | 40 | 1013.5 |
| 20260504100518 | 3 | 203 | 9.7 | 11.3 | 0.00 | 0.00 | 0.00 | 50 | 1013.4 |